Time,TemperatureF,DewpointF,PressureIn,WindDirection,WindDirectionDegrees,WindSpeedMPH,WindSpeedGustMPH,Humidity,HourlyPrecipIn,Conditions,Clouds,dailyrainin,SoftwareType,DateUTC
2013-05-27 00:01:00,64.8,50.0,29.71,SSE,157,0.0,2.7,60,0.00,,,0.00,WUHU216WMR968SP,2013-05-27 05:01:00,
2013-05-27 00:06:00,64.8,50.0,29.71,SSE,157,0.0,2.7,60,0.00,,,0.00,WUHU216WMR968SP,2013-05-27 05:06:00,
2013-05-27 00:11:00,64.6,50.0,29.71,South,171,0.0,3.1,60,0.00,,,0.00,WUHU216WMR968SP,2013-05-27 05:11:00,
2013-05-27 00:16:00,64.4,50.0,29.71,ESE,118,0.0,3.1,60,0.00,,,0.00,WUHU216WMR968SP,2013-05-27 05:16:00,
2013-05-27 00:21:00,64.4,50.0,29.71,SE,140,0.0,2.7,61,0.00,,,0.00,WUHU216WMR968SP,2013-05-27 05:21:00,
2013-05-27 00:26:00,64.2,50.0,29.71,SE,140,0.0,0.0,61,0.00,,,0.00,WUHU216WMR968SP,2013-05-27 05:26:00,
2013-05-27 00:31:00,63.9,50.0,29.71,SE,140,0.0,0.0,61,0.00,,,0.00,WUHU216WMR968SP,2013-05-27 05:31:00,
2013-05-27 00:36:00,63.9,51.8,29.71,SE,140,0.0,0.0,64,0.00,,,0.00,WUHU216WMR968SP,2013-05-27 05:36:00,
2013-05-27 00:41:00,63.9,51.8,29.71,SE,140,0.0,0.0,65,0.00,,,0.00,WUHU216WMR968SP,2013-05-27 05:41:00,
2013-05-27 00:46:00,63.5,51.8,29.71,SE,140,0.0,0.0,64,0.00,,,0.00,WUHU216WMR968SP,2013-05-27 05:46:00,
2013-05-27 00:51:00,63.1,50.0,29.71,SE,140,0.0,0.0,64,0.00,,,0.00,WUHU216WMR968SP,2013-05-27 05:51:00,
2013-05-27 00:56:00,63.0,50.0,29.71,SE,140,0.0,0.0,65,0.00,,,0.00,WUHU216WMR968SP,2013-05-27 05:56:00,
2013-05-27 01:01:00,62.8,50.0,29.71,SE,140,0.0,0.0,65,0.00,,,0.00,WUHU216WMR968SP,2013-05-27 06:01:00,
2013-05-27 01:06:00,62.6,50.0,29.71,SE,140,0.0,0.0,65,0.00,,,0.00,WUHU216WMR968SP,2013-05-27 06:06:00,
2013-05-27 01:11:00,62.6,50.0,29.71,SE,140,0.0,0.0,65,0.00,,,0.00,WUHU216WMR968SP,2013-05-27 06:11:00,
2013-05-27 01:16:00,62.6,50.0,29.71,SE,140,0.0,0.0,65,0.00,,,0.00,WUHU216WMR968SP,2013-05-27 06:16:00,
2013-05-27 01:21:00,62.8,51.8,29.71,SE,133,0.0,0.0,68,0.00,,,0.00,WUHU216WMR968SP,2013-05-27 06:21:00,
2013-05-27 01:26:00,63.0,51.8,29.71,SE,133,0.0,0.0,69,0.00,,,0.00,WUHU216WMR968SP,2013-05-27 06:26:00,
2013-05-27 01:31:00,62.8,51.8,29.71,SE,133,0.0,0.0,69,0.00,,,0.00,WUHU216WMR968SP,2013-05-27 06:31:00,
2013-05-27 01:36:00,62.6,51.8,29.71,SE,133,0.0,0.0,69,0.00,,,0.00,WUHU216WMR968SP,2013-05-27 06:36:00,
2013-05-27 01:41:00,62.6,51.8,29.71,SE,133,0.0,0.0,68,0.00,,,0.00,WUHU216WMR968SP,2013-05-27 06:41:00,
2013-05-27 01:46:00,62.4,51.8,29.71,SE,133,0.0,0.0,69,0.00,,,0.00,WUHU216WMR968SP,2013-05-27 06:46:00,
2013-05-27 01:51:00,62.4,51.8,29.71,SE,133,0.0,0.0,68,0.00,,,0.00,WUHU216WMR968SP,2013-05-27 06:51:00,
2013-05-27 01:56:00,62.2,51.8,29.71,SE,133,0.0,0.0,68,0.00,,,0.00,WUHU216WMR968SP,2013-05-27 06:56:00,
2013-05-27 02:01:00,62.2,51.8,29.71,South,184,0.0,0.0,68,0.00,,,0.00,WUHU216WMR968SP,2013-05-27 07:01:00,
2013-05-27 02:06:00,62.2,51.8,29.71,SSE,149,0.0,0.0,69,0.00,,,0.00,WUHU216WMR968SP,2013-05-27 07:06:00,
2013-05-27 02:11:00,62.4,53.6,29.71,SSE,149,0.0,0.0,70,0.00,,,0.00,WUHU216WMR968SP,2013-05-27 07:11:00,
2013-05-27 02:16:00,62.6,53.6,29.71,SSE,149,0.0,0.0,70,0.00,,,0.00,WUHU216WMR968SP,2013-05-27 07:16:00,
2013-05-27 02:21:00,62.8,53.6,29.71,SSE,149,0.0,0.0,70,0.00,,,0.00,WUHU216WMR968SP,2013-05-27 07:21:00,
2013-05-27 02:26:00,62.6,53.6,29.71,SSE,149,0.0,0.0,70,0.00,,,0.00,WUHU216WMR968SP,2013-05-27 07:26:00,
2013-05-27 02:31:00,62.4,53.6,29.71,SSE,149,0.0,0.0,70,0.00,,,0.00,WUHU216WMR968SP,2013-05-27 07:31:00,
2013-05-27 02:36:00,62.4,53.6,29.71,SSE,149,0.0,0.0,70,0.00,,,0.00,WUHU216WMR968SP,2013-05-27 07:36:00,
2013-05-27 02:41:00,62.2,51.8,29.71,SSE,149,0.0,0.0,69,0.00,,,0.00,WUHU216WMR968SP,2013-05-27 07:41:00,
2013-05-27 02:46:00,62.2,51.8,29.71,SSE,149,0.0,0.0,69,0.00,,,0.00,WUHU216WMR968SP,2013-05-27 07:46:00,
2013-05-27 02:51:00,62.2,51.8,29.71,SSE,149,0.0,0.0,69,0.00,,,0.00,WUHU216WMR968SP,2013-05-27 07:51:00,
2013-05-27 02:56:00,62.2,53.6,29.71,SSE,149,0.0,0.0,70,0.00,,,0.00,WUHU216WMR968SP,2013-05-27 07:56:00,
2013-05-27 03:01:00,62.4,53.6,29.71,SSE,149,0.0,0.0,70,0.00,,,0.00,WUHU216WMR968SP,2013-05-27 08:01:00,
2013-05-27 03:06:00,62.4,53.6,29.71,SSE,149,0.0,0.0,70,0.00,,,0.00,WUHU216WMR968SP,2013-05-27 08:06:00,
2013-05-27 03:11:00,62.4,53.6,29.71,SSE,149,0.0,0.0,70,0.00,,,0.00,WUHU216WMR968SP,2013-05-27 08:11:00,
2013-05-27 03:16:00,62.2,53.6,29.71,SSE,149,0.0,0.0,70,0.00,,,0.00,WUHU216WMR968SP,2013-05-27 08:16:00,
2013-05-27 03:21:00,62.2,53.6,29.71,SSE,149,0.0,0.0,70,0.00,,,0.00,WUHU216WMR968SP,2013-05-27 08:21:00,
2013-05-27 03:26:00,62.1,53.6,29.71,SSE,149,0.0,0.0,70,0.00,,,0.00,WUHU216WMR968SP,2013-05-27 08:26:00,
2013-05-27 03:31:00,62.1,53.6,29.71,SSE,149,0.0,0.0,70,0.00,,,0.00,WUHU216WMR968SP,2013-05-27 08:31:00,
2013-05-27 03:36:00,62.2,53.6,29.71,SSE,149,0.0,0.0,70,0.00,,,0.00,WUHU216WMR968SP,2013-05-27 08:36:00,
2013-05-27 03:41:00,62.2,53.6,29.71,SSE,149,0.0,0.0,70,0.00,,,0.00,WUHU216WMR968SP,2013-05-27 08:41:00,
2013-05-27 03:46:00,62.4,53.6,29.71,SSE,149,0.0,0.0,70,0.00,,,0.00,WUHU216WMR968SP,2013-05-27 08:46:00,
2013-05-27 03:51:00,62.8,51.8,29.71,SSE,149,0.0,0.0,69,0.00,,,0.00,WUHU216WMR968SP,2013-05-27 08:51:00,
2013-05-27 03:56:00,63.0,51.8,29.71,SSE,149,0.0,0.0,68,0.00,,,0.00,WUHU216WMR968SP,2013-05-27 08:56:00,
2013-05-27 04:01:00,63.0,51.8,29.71,SSE,149,0.0,0.0,68,0.00,,,0.00,WUHU216WMR968SP,2013-05-27 09:01:00,
2013-05-27 04:06:00,63.0,51.8,29.71,SSE,149,0.0,0.0,67,0.00,,,0.00,WUHU216WMR968SP,2013-05-27 09:06:00,
2013-05-27 04:11:00,63.1,51.8,29.71,SSE,149,0.0,0.0,67,0.00,,,0.00,WUHU216WMR968SP,2013-05-27 09:11:00,
2013-05-27 04:16:00,63.1,51.8,29.71,SSE,149,0.0,0.0,67,0.00,,,0.00,WUHU216WMR968SP,2013-05-27 09:16:00,
2013-05-27 04:21:00,63.3,51.8,29.71,SSE,149,0.0,0.0,67,0.00,,,0.00,WUHU216WMR968SP,2013-05-27 09:21:00,
2013-05-27 04:26:00,63.7,53.6,29.71,SSE,151,0.0,3.1,67,0.00,,,0.00,WUHU216WMR968SP,2013-05-27 09:26:00,
2013-05-27 04:31:00,63.9,53.6,29.71,SE,144,0.0,3.1,66,0.00,,,0.00,WUHU216WMR968SP,2013-05-27 09:31:00,
2013-05-27 04:36:00,64.0,51.8,29.71,ESE,118,0.0,2.2,65,0.00,,,0.00,WUHU216WMR968SP,2013-05-27 09:36:00,
2013-05-27 04:41:00,64.2,51.8,29.71,South,170,0.0,0.0,64,0.00,,,0.00,WUHU216WMR968SP,2013-05-27 09:41:00,
2013-05-27 04:46:00,64.6,50.0,29.71,South,170,0.0,0.0,61,0.00,,,0.00,WUHU216WMR968SP,2013-05-27 09:46:00,
2013-05-27 04:51:00,64.8,50.0,29.71,South,169,0.0,2.7,59,0.00,,,0.00,WUHU216WMR968SP,2013-05-27 09:51:00,
2013-05-27 04:56:00,64.8,50.0,29.71,SSE,149,0.0,2.7,59,0.00,,,0.00,WUHU216WMR968SP,2013-05-27 09:56:00,
2013-05-27 05:01:00,64.8,50.0,29.71,SSW,192,0.0,2.7,59,0.00,,,0.00,WUHU216WMR968SP,2013-05-27 10:01:00,
2013-05-27 05:06:00,64.8,50.0,29.71,South,170,0.0,0.0,59,0.00,,,0.00,WUHU216WMR968SP,2013-05-27 10:06:00,
2013-05-27 05:11:00,64.6,50.0,29.71,SE,141,0.0,2.7,60,0.00,,,0.00,WUHU216WMR968SP,2013-05-27 10:11:00,
2013-05-27 05:16:00,64.6,50.0,29.71,SE,127,0.0,2.7,60,0.00,,,0.00,WUHU216WMR968SP,2013-05-27 10:16:00,
2013-05-27 05:21:00,64.6,50.0,29.71,SE,142,0.0,0.0,60,0.00,,,0.00,WUHU216WMR968SP,2013-05-27 10:21:00,
2013-05-27 05:26:00,64.6,50.0,29.71,South,189,0.0,0.0,60,0.00,,,0.00,WUHU216WMR968SP,2013-05-27 10:26:00,
2013-05-27 05:31:00,64.6,50.0,29.71,SSE,167,0.0,0.0,60,0.00,,,0.00,WUHU216WMR968SP,2013-05-27 10:31:00,
2013-05-27 05:36:00,65.1,50.0,29.71,South,176,0.0,0.0,58,0.00,,,0.00,WUHU216WMR968SP,2013-05-27 10:36:00,
2013-05-27 05:41:00,65.7,50.0,29.71,South,177,0.0,0.0,57,0.00,,,0.00,WUHU216WMR968SP,2013-05-27 10:41:00,
2013-05-27 05:46:00,65.7,50.0,29.71,South,174,0.0,0.0,56,0.00,,,0.00,WUHU216WMR968SP,2013-05-27 10:46:00,
2013-05-27 05:51:00,65.5,50.0,29.71,South,174,0.0,0.0,57,0.00,,,0.00,WUHU216WMR968SP,2013-05-27 10:51:00,
2013-05-27 05:56:00,65.5,50.0,29.71,South,174,0.0,0.0,57,0.00,,,0.00,WUHU216WMR968SP,2013-05-27 10:56:00,
2013-05-27 06:01:00,65.3,50.0,29.71,South,174,0.0,0.0,57,0.00,,,0.00,WUHU216WMR968SP,2013-05-27 11:01:00,
2013-05-27 06:06:00,65.3,50.0,29.71,South,174,0.0,0.0,57,0.00,,,0.00,WUHU216WMR968SP,2013-05-27 11:06:00,
2013-05-27 06:11:00,65.1,50.0,29.71,South,174,0.0,0.0,58,0.00,,,0.00,WUHU216WMR968SP,2013-05-27 11:11:00,
2013-05-27 06:16:00,65.3,51.8,29.71,South,174,0.0,0.0,58,0.00,,,0.00,WUHU216WMR968SP,2013-05-27 11:16:00,
2013-05-27 06:21:00,65.5,51.8,29.71,South,174,0.0,0.0,59,0.00,,,0.00,WUHU216WMR968SP,2013-05-27 11:21:00,
2013-05-27 06:26:00,64.9,50.0,29.71,East,99,0.0,0.0,58,0.00,,,0.00,WUHU216WMR968SP,2013-05-27 11:26:00,
2013-05-27 06:31:00,64.2,51.8,29.74,East,99,0.0,0.0,62,0.00,,,0.00,WUHU216WMR968SP,2013-05-27 11:31:00,
2013-05-27 06:36:00,63.9,51.8,29.74,East,99,0.0,0.0,64,0.00,,,0.00,WUHU216WMR968SP,2013-05-27 11:36:00,
2013-05-27 06:41:00,63.7,51.8,29.74,East,99,0.0,0.0,65,0.00,,,0.00,WUHU216WMR968SP,2013-05-27 11:41:00,
2013-05-27 06:46:00,63.7,53.6,29.74,SW,219,0.0,0.0,66,0.00,,,0.00,WUHU216WMR968SP,2013-05-27 11:46:00,
2013-05-27 06:51:00,63.9,53.6,29.74,South,178,0.0,0.0,67,0.00,,,0.00,WUHU216WMR968SP,2013-05-27 11:51:00,
2013-05-27 06:56:00,64.0,53.6,29.74,South,183,0.0,2.2,68,0.00,,,0.00,WUHU216WMR968SP,2013-05-27 11:56:00,
2013-05-27 07:01:00,64.0,53.6,29.74,South,189,0.0,2.7,69,0.00,,,0.00,WUHU216WMR968SP,2013-05-27 12:01:00,
2013-05-27 07:06:00,64.8,53.6,29.74,South,187,0.0,2.7,69,0.00,,,0.00,WUHU216WMR968SP,2013-05-27 12:06:00,
2013-05-27 07:11:00,65.5,55.4,29.74,SE,133,0.0,2.7,67,0.00,,,0.00,WUHU216WMR968SP,2013-05-27 12:11:00,
2013-05-27 07:16:00,65.8,55.4,29.74,SSE,152,0.0,2.7,66,0.00,,,0.00,WUHU216WMR968SP,2013-05-27 12:16:00,
2013-05-27 07:21:00,66.2,53.6,29.74,South,172,0.0,3.1,65,0.00,,,0.00,WUHU216WMR968SP,2013-05-27 12:21:00,
2013-05-27 07:26:00,66.4,53.6,29.74,SSE,159,0.0,3.1,64,0.00,,,0.00,WUHU216WMR968SP,2013-05-27 12:26:00,
2013-05-27 07:31:00,66.6,53.6,29.74,South,174,0.0,3.1,63,0.00,,,0.00,WUHU216WMR968SP,2013-05-27 12:31:00,
2013-05-27 07:36:00,66.4,53.6,29.74,South,174,0.0,3.1,63,0.00,,,0.00,WUHU216WMR968SP,2013-05-27 12:36:00,
2013-05-27 07:41:00,65.5,53.6,29.74,South,174,0.0,0.0,64,0.00,,,0.00,WUHU216WMR968SP,2013-05-27 12:41:00,
2013-05-27 07:46:00,65.3,55.4,29.74,South,174,0.0,0.0,67,0.00,,,0.00,WUHU216WMR968SP,2013-05-27 12:46:00,
2013-05-27 07:51:00,65.3,55.4,29.74,South,174,0.0,0.0,68,0.00,,,0.00,WUHU216WMR968SP,2013-05-27 12:51:00,
2013-05-27 07:56:00,65.5,55.4,29.74,South,174,0.0,0.0,68,0.00,,,0.00,WUHU216WMR968SP,2013-05-27 12:56:00,
2013-05-27 08:01:00,65.7,55.4,29.74,South,178,0.0,0.0,69,0.00,,,0.00,WUHU216WMR968SP,2013-05-27 13:01:00,
2013-05-27 08:06:00,65.7,55.4,29.74,South,172,0.0,2.7,70,0.00,,,0.00,WUHU216WMR968SP,2013-05-27 13:06:00,
2013-05-27 08:11:00,66.2,55.4,29.74,South,181,0.0,2.7,70,0.00,,,0.00,WUHU216WMR968SP,2013-05-27 13:11:00,
2013-05-27 08:16:00,66.6,57.2,29.74,South,171,0.0,2.2,71,0.00,,,0.00,WUHU216WMR968SP,2013-05-27 13:16:00,
2013-05-27 08:21:00,67.1,57.2,29.74,SSE,166,0.0,2.2,69,0.00,,,0.00,WUHU216WMR968SP,2013-05-27 13:21:00,
2013-05-27 08:26:00,67.6,57.2,29.74,South,187,0.0,2.2,67,0.00,,,0.00,WUHU216WMR968SP,2013-05-27 13:26:00,
2013-05-27 08:31:00,68.2,55.4,29.74,South,187,0.0,0.0,66,0.00,,,0.00,WUHU216WMR968SP,2013-05-27 13:31:00,
2013-05-27 08:36:00,68.9,57.2,29.74,SE,131,0.0,0.0,66,0.00,,,0.00,WUHU216WMR968SP,2013-05-27 13:36:00,
2013-05-27 08:41:00,69.1,57.2,29.74,SSE,158,0.0,0.0,65,0.00,,,0.00,WUHU216WMR968SP,2013-05-27 13:41:00,
2013-05-27 08:46:00,69.3,57.2,29.74,SSW,205,0.0,3.6,64,0.00,,,0.00,WUHU216WMR968SP,2013-05-27 13:46:00,
2013-05-27 08:51:00,69.3,57.2,29.74,South,185,0.0,3.6,63,0.00,,,0.00,WUHU216WMR968SP,2013-05-27 13:51:00,
2013-05-27 08:56:00,69.4,55.4,29.74,South,172,0.0,2.7,62,0.00,,,0.00,WUHU216WMR968SP,2013-05-27 13:56:00,
2013-05-27 09:01:00,69.8,55.4,29.74,SSE,156,0.0,2.7,61,0.00,,,0.00,WUHU216WMR968SP,2013-05-27 14:01:00,
2013-05-27 09:06:00,70.0,55.4,29.74,SSW,206,0.0,2.7,61,0.00,,,0.00,WUHU216WMR968SP,2013-05-27 14:06:00,
2013-05-27 09:11:00,70.5,55.4,29.74,SSE,157,0.0,0.0,60,0.00,,,0.00,WUHU216WMR968SP,2013-05-27 14:11:00,
2013-05-27 09:16:00,71.1,57.2,29.74,South,185,0.0,0.0,60,0.00,,,0.00,WUHU216WMR968SP,2013-05-27 14:16:00,
2013-05-27 09:21:00,72.0,57.2,29.74,South,185,0.0,0.0,60,0.00,,,0.00,WUHU216WMR968SP,2013-05-27 14:21:00,
2013-05-27 09:26:00,73.0,57.2,29.74,South,185,0.0,0.0,58,0.00,,,0.00,WUHU216WMR968SP,2013-05-27 14:26:00,
2013-05-27 09:31:00,73.8,55.4,29.74,SE,140,0.0,2.7,52,0.00,,,0.00,WUHU216WMR968SP,2013-05-27 14:31:00,
2013-05-27 09:36:00,74.3,55.4,29.74,South,173,0.0,3.1,50,0.00,,,0.00,WUHU216WMR968SP,2013-05-27 14:36:00,
2013-05-27 09:41:00,75.0,55.4,29.74,South,183,3.6,4.9,49,0.00,,,0.00,WUHU216WMR968SP,2013-05-27 14:41:00,
2013-05-27 09:46:00,76.1,57.2,29.71,SSE,165,3.1,4.9,49,0.00,,,0.00,WUHU216WMR968SP,2013-05-27 14:46:00,
2013-05-27 09:51:00,76.8,53.6,29.71,SSW,197,4.0,5.8,45,0.00,,,0.00,WUHU216WMR968SP,2013-05-27 14:51:00,
2013-05-27 09:56:00,77.4,53.6,29.71,SSE,164,2.5,5.8,45,0.00,,,0.00,WUHU216WMR968SP,2013-05-27 14:56:00,
2013-05-27 10:01:00,77.7,51.8,29.71,SSE,168,4.7,7.6,42,0.00,,,0.00,WUHU216WMR968SP,2013-05-27 15:01:00,
2013-05-27 10:06:00,78.3,53.6,29.71,South,190,4.5,8.7,41,0.00,,,0.00,WUHU216WMR968SP,2013-05-27 15:06:00,
2013-05-27 10:11:00,79.3,51.8,29.71,South,174,5.5,8.7,40,0.00,,,0.00,WUHU216WMR968SP,2013-05-27 15:11:00,
2013-05-27 10:16:00,81.3,53.6,29.71,South,183,4.9,8.3,40,0.00,,,0.00,WUHU216WMR968SP,2013-05-27 15:16:00,
2013-05-27 10:21:00,82.2,55.4,29.71,SSW,192,7.0,10.1,39,0.00,,,0.00,WUHU216WMR968SP,2013-05-27 15:21:00,
2013-05-27 10:26:00,82.8,53.6,29.71,ESE,109,5.8,10.1,38,0.00,,,0.00,WUHU216WMR968SP,2013-05-27 15:26:00,
2013-05-27 10:31:00,82.4,51.8,29.71,SSW,201,6.9,9.6,34,0.00,,,0.00,WUHU216WMR968SP,2013-05-27 15:31:00,
2013-05-27 10:36:00,82.2,51.8,29.71,South,179,5.6,9.6,34,0.00,,,0.00,WUHU216WMR968SP,2013-05-27 15:36:00,
2013-05-27 10:41:00,82.0,51.8,29.71,South,176,6.6,9.2,35,0.00,,,0.00,WUHU216WMR968SP,2013-05-27 15:41:00,
2013-05-27 10:46:00,82.9,53.6,29.71,South,178,5.5,11.0,38,0.00,,,0.00,WUHU216WMR968SP,2013-05-27 15:46:00,
2013-05-27 10:51:00,83.7,53.6,29.71,SSW,196,5.8,11.0,34,0.00,,,0.00,WUHU216WMR968SP,2013-05-27 15:51:00,
2013-05-27 10:56:00,84.0,51.8,29.71,South,184,5.1,10.1,33,0.00,,,0.00,WUHU216WMR968SP,2013-05-27 15:56:00,
2013-05-27 11:01:00,84.6,51.8,29.71,South,182,5.8,10.1,32,0.00,,,0.00,WUHU216WMR968SP,2013-05-27 16:01:00,
2013-05-27 11:06:00,84.9,51.8,29.71,SSW,208,6.7,10.5,32,0.00,,,0.00,WUHU216WMR968SP,2013-05-27 16:06:00,
2013-05-27 11:11:00,85.3,53.6,29.71,SSW,194,7.6,10.5,32,0.00,,,0.00,WUHU216WMR968SP,2013-05-27 16:11:00,
2013-05-27 11:16:00,85.5,53.6,29.71,South,190,5.6,10.1,32,0.00,,,0.00,WUHU216WMR968SP,2013-05-27 16:16:00,
2013-05-27 11:21:00,85.3,51.8,29.71,SSW,194,7.6,12.3,31,0.00,,,0.00,WUHU216WMR968SP,2013-05-27 16:21:00,
2013-05-27 11:26:00,84.6,50.0,29.71,SSW,206,8.2,12.8,30,0.00,,,0.00,WUHU216WMR968SP,2013-05-27 16:26:00,
2013-05-27 11:31:00,84.6,50.0,29.71,South,169,5.9,12.8,31,0.00,,,0.00,WUHU216WMR968SP,2013-05-27 16:31:00,
2013-05-27 11:35:00,84.6,50.0,29.71,South,186,8.1,10.5,30,0.00,,,0.00,WUHU216WMR968SP,2013-05-27 16:35:00,
2013-05-27 11:40:00,84.2,51.8,29.71,SSW,195,6.7,10.5,32,0.00,,,0.00,WUHU216WMR968SP,2013-05-27 16:40:00,
2013-05-27 11:46:00,84.2,50.0,29.71,SSE,153,6.3,11.4,31,0.00,,,0.00,WUHU216WMR968SP,2013-05-27 16:46:00,
2013-05-27 11:50:00,84.2,50.0,29.71,South,181,7.6,12.8,31,0.00,,,0.00,WUHU216WMR968SP,2013-05-27 16:50:00,
2013-05-27 11:55:00,84.6,50.0,29.71,South,191,6.7,12.8,31,0.00,,,0.00,WUHU216WMR968SP,2013-05-27 16:55:00,
2013-05-27 12:00:00,84.2,50.0,29.68,SSW,204,6.8,10.5,30,0.00,,,0.00,WUHU216WMR968SP,2013-05-27 17:00:00,
2013-05-27 12:05:00,84.7,50.0,29.68,SSE,164,7.6,11.0,31,0.00,,,0.00,WUHU216WMR968SP,2013-05-27 17:05:00,
2013-05-27 12:10:00,85.3,51.8,29.68,South,178,6.6,11.9,30,0.00,,,0.00,WUHU216WMR968SP,2013-05-27 17:10:00,
2013-05-27 12:15:00,85.6,50.0,29.68,SSW,195,6.5,13.6,29,0.00,,,0.00,WUHU216WMR968SP,2013-05-27 17:15:00,
2013-05-27 12:20:00,85.5,50.0,29.68,SSE,162,9.2,13.6,29,0.00,,,0.00,WUHU216WMR968SP,2013-05-27 17:20:00,
2013-05-27 12:25:00,85.3,48.2,29.68,SSW,204,8.7,11.9,27,0.00,,,0.00,WUHU216WMR968SP,2013-05-27 17:25:00,
2013-05-27 12:30:00,84.9,48.2,29.68,SSE,159,8.0,11.9,28,0.00,,,0.00,WUHU216WMR968SP,2013-05-27 17:30:00,
2013-05-27 12:35:00,85.3,50.0,29.68,South,173,6.4,11.0,29,0.00,,,0.00,WUHU216WMR968SP,2013-05-27 17:35:00,
2013-05-27 12:40:00,84.9,44.6,29.68,SSW,193,8.1,11.0,25,0.00,,,0.00,WUHU216WMR968SP,2013-05-27 17:40:00,
2013-05-27 12:45:00,84.6,46.4,29.68,SSW,199,5.8,11.0,27,0.00,,,0.00,WUHU216WMR968SP,2013-05-27 17:45:00,
2013-05-27 12:50:00,84.2,48.2,29.68,South,186,5.4,10.1,29,0.00,,,0.00,WUHU216WMR968SP,2013-05-27 17:50:00,
2013-05-27 12:55:00,84.4,48.2,29.68,SSE,156,4.1,8.7,29,0.00,,,0.00,WUHU216WMR968SP,2013-05-27 17:55:00,
2013-05-27 13:00:00,84.9,50.0,29.68,SE,139,5.4,10.1,30,0.00,,,0.00,WUHU216WMR968SP,2013-05-27 18:00:00,
2013-05-27 13:05:00,84.9,48.2,29.68,South,191,6.6,12.3,29,0.00,,,0.00,WUHU216WMR968SP,2013-05-27 18:05:00,
2013-05-27 13:10:00,85.1,46.4,29.68,SSW,204,5.8,12.3,25,0.00,,,0.00,WUHU216WMR968SP,2013-05-27 18:10:00,
2013-05-27 13:15:00,85.6,46.4,29.68,SSE,150,8.1,12.3,25,0.00,,,0.00,WUHU216WMR968SP,2013-05-27 18:15:00,
2013-05-27 13:20:00,85.6,44.6,29.68,South,186,8.3,10.5,24,0.00,,,0.00,WUHU216WMR968SP,2013-05-27 18:20:00,
2013-05-27 13:25:00,85.8,44.6,29.68,SSW,204,7.2,11.0,23,0.00,,,0.00,WUHU216WMR968SP,2013-05-27 18:25:00,
2013-05-27 13:30:00,85.8,44.6,29.68,SSW,196,4.9,11.0,24,0.00,,,0.00,WUHU216WMR968SP,2013-05-27 18:30:00,
2013-05-27 13:35:00,85.3,46.4,29.68,SSE,163,5.4,10.1,25,0.00,,,0.00,WUHU216WMR968SP,2013-05-27 18:35:00,
2013-05-27 13:40:00,85.3,46.4,29.68,South,174,6.3,8.3,26,0.00,,,0.00,WUHU216WMR968SP,2013-05-27 18:40:00,
2013-05-27 13:45:00,85.8,46.4,29.68,South,173,4.9,10.1,26,0.00,,,0.00,WUHU216WMR968SP,2013-05-27 18:45:00,
2013-05-27 13:50:00,86.0,42.8,29.68,South,178,6.3,10.1,22,0.00,,,0.00,WUHU216WMR968SP,2013-05-27 18:50:00,
2013-05-27 13:55:00,85.5,44.6,29.68,SSW,198,6.8,10.1,23,0.00,,,0.00,WUHU216WMR968SP,2013-05-27 18:55:00,
2013-05-27 14:00:00,85.5,42.8,29.68,SSW,212,4.9,10.1,22,0.00,,,0.00,WUHU216WMR968SP,2013-05-27 19:00:00,
2013-05-27 14:05:00,85.8,41.0,29.68,SSW,199,8.3,10.5,20,0.00,,,0.00,WUHU216WMR968SP,2013-05-27 19:05:00,
2013-05-27 14:10:00,85.5,41.0,29.68,SSW,197,3.1,10.5,21,0.00,,,0.00,WUHU216WMR968SP,2013-05-27 19:10:00,
2013-05-27 14:15:00,85.6,41.0,29.68,South,177,6.3,10.5,21,0.00,,,0.00,WUHU216WMR968SP,2013-05-27 19:15:00,
2013-05-27 14:20:00,85.6,41.0,29.68,SSW,192,9.6,11.0,20,0.00,,,0.00,WUHU216WMR968SP,2013-05-27 19:20:00,
2013-05-27 14:25:00,85.5,41.0,29.68,South,184,8.3,13.2,20,0.00,,,0.00,WUHU216WMR968SP,2013-05-27 19:25:00,
2013-05-27 14:30:00,85.5,41.0,29.68,SSW,205,4.4,13.2,20,0.00,,,0.00,WUHU216WMR968SP,2013-05-27 19:30:00,
2013-05-27 14:35:00,85.5,41.0,29.68,SSW,201,6.3,10.5,20,0.00,,,0.00,WUHU216WMR968SP,2013-05-27 19:35:00,
2013-05-27 14:40:00,85.5,41.0,29.68,SSW,211,4.2,10.1,20,0.00,,,0.00,WUHU216WMR968SP,2013-05-27 19:40:00,
2013-05-27 14:45:00,85.3,41.0,29.65,SSW,209,5.0,8.7,20,0.00,,,0.00,WUHU216WMR968SP,2013-05-27 19:45:00,
2013-05-27 14:50:00,85.5,41.0,29.65,SSW,203,5.1,8.3,20,0.00,,,0.00,WUHU216WMR968SP,2013-05-27 19:50:00,
2013-05-27 14:55:00,85.5,41.0,29.65,SSW,203,6.5,10.5,20,0.00,,,0.00,WUHU216WMR968SP,2013-05-27 19:55:00,
2013-05-27 15:00:00,85.6,42.8,29.65,South,179,3.1,10.5,22,0.00,,,0.00,WUHU216WMR968SP,2013-05-27 20:00:00,
2013-05-27 15:05:00,85.6,41.0,29.65,SE,145,5.8,10.5,20,0.00,,,0.00,WUHU216WMR968SP,2013-05-27 20:05:00,
2013-05-27 15:10:00,85.6,41.0,29.65,SSW,198,5.2,10.5,21,0.00,,,0.00,WUHU216WMR968SP,2013-05-27 20:10:00,
2013-05-27 15:15:00,85.5,41.0,29.65,SSE,162,6.7,10.5,20,0.00,,,0.00,WUHU216WMR968SP,2013-05-27 20:15:00,
2013-05-27 15:20:00,85.5,41.0,29.65,South,184,7.2,10.5,20,0.00,,,0.00,WUHU216WMR968SP,2013-05-27 20:20:00,
2013-05-27 15:25:00,85.3,41.0,29.65,South,191,6.3,11.0,20,0.00,,,0.00,WUHU216WMR968SP,2013-05-27 20:25:00,
2013-05-27 15:30:00,85.5,41.0,29.65,SSW,200,4.2,11.0,20,0.00,,,0.00,WUHU216WMR968SP,2013-05-27 20:30:00,
2013-05-27 15:35:00,85.8,41.0,29.65,SSW,201,4.5,8.7,20,0.00,,,0.00,WUHU216WMR968SP,2013-05-27 20:35:00,
2013-05-27 15:40:00,88.3,41.0,29.65,SSW,213,3.8,12.3,19,0.00,,,0.00,WUHU216WMR968SP,2013-05-27 20:40:00,
2013-05-27 15:45:00,90.5,42.8,29.65,South,180,6.6,12.3,18,0.00,,,0.00,WUHU216WMR968SP,2013-05-27 20:45:00,
2013-05-27 15:50:00,89.1,41.0,29.65,SSW,209,6.1,10.1,18,0.00,,,0.00,WUHU216WMR968SP,2013-05-27 20:50:00,
2013-05-27 15:55:00,87.1,41.0,29.65,SSW,200,7.6,11.0,19,0.00,,,0.00,WUHU216WMR968SP,2013-05-27 20:55:00,
2013-05-27 16:00:00,87.1,41.0,29.65,SSE,162,5.8,11.0,19,0.00,,,0.00,WUHU216WMR968SP,2013-05-27 21:00:00,
2013-05-27 16:05:00,87.1,41.0,29.65,South,181,4.9,10.5,19,0.00,,,0.00,WUHU216WMR968SP,2013-05-27 21:05:00,
2013-05-27 16:10:00,86.7,39.2,29.65,South,191,3.6,8.7,19,0.00,,,0.00,WUHU216WMR968SP,2013-05-27 21:10:00,
2013-05-27 16:15:00,86.7,39.2,29.62,SW,221,8.7,11.0,19,0.00,,,0.00,WUHU216WMR968SP,2013-05-27 21:15:00,
2013-05-27 16:20:00,86.5,39.2,29.62,SSW,208,5.8,11.0,19,0.00,,,0.00,WUHU216WMR968SP,2013-05-27 21:20:00,
2013-05-27 16:25:00,85.8,41.0,29.62,South,178,7.1,13.2,20,0.00,,,0.00,WUHU216WMR968SP,2013-05-27 21:25:00,
2013-05-27 16:30:00,85.1,41.0,29.62,South,170,4.2,13.2,21,0.00,,,0.00,WUHU216WMR968SP,2013-05-27 21:30:00,
2013-05-27 16:35:00,85.3,42.8,29.62,South,183,6.1,11.4,22,0.00,,,0.00,WUHU216WMR968SP,2013-05-27 21:35:00,
2013-05-27 16:40:00,85.8,41.0,29.62,SE,136,5.4,8.3,21,0.00,,,0.00,WUHU216WMR968SP,2013-05-27 21:40:00,
2013-05-27 16:45:00,86.7,41.0,29.62,South,173,6.3,12.8,20,0.00,,,0.00,WUHU216WMR968SP,2013-05-27 21:45:00,
2013-05-27 16:50:00,87.1,41.0,29.62,SE,131,5.4,12.8,20,0.00,,,0.00,WUHU216WMR968SP,2013-05-27 21:50:00,
2013-05-27 16:55:00,88.0,41.0,29.62,SSW,193,6.6,10.1,19,0.00,,,0.00,WUHU216WMR968SP,2013-05-27 21:55:00,
2013-05-27 17:00:00,87.1,41.0,29.62,South,186,6.8,10.1,20,0.00,,,0.00,WUHU216WMR968SP,2013-05-27 22:00:00,
2013-05-27 17:05:00,86.0,41.0,29.62,South,178,7.2,12.8,20,0.00,,,0.00,WUHU216WMR968SP,2013-05-27 22:05:00,
2013-05-27 17:10:00,85.1,41.0,29.62,SSE,155,5.4,12.8,21,0.00,,,0.00,WUHU216WMR968SP,2013-05-27 22:10:00,
2013-05-27 17:15:00,85.1,42.8,29.62,South,185,7.6,11.0,22,0.00,,,0.00,WUHU216WMR968SP,2013-05-27 22:15:00,
2013-05-27 17:20:00,85.6,42.8,29.62,SSW,193,4.6,11.0,22,0.00,,,0.00,WUHU216WMR968SP,2013-05-27 22:20:00,
2013-05-27 17:25:00,86.0,41.0,29.62,South,171,6.0,9.6,21,0.00,,,0.00,WUHU216WMR968SP,2013-05-27 22:25:00,
2013-05-27 17:30:00,86.0,42.8,29.62,SSW,192,5.8,9.6,22,0.00,,,0.00,WUHU216WMR968SP,2013-05-27 22:30:00,
2013-05-27 17:35:00,85.8,41.0,29.62,South,170,5.5,8.7,21,0.00,,,0.00,WUHU216WMR968SP,2013-05-27 22:35:00,
2013-05-27 17:40:00,85.8,42.8,29.62,South,187,4.8,8.7,22,0.00,,,0.00,WUHU216WMR968SP,2013-05-27 22:40:00,
2013-05-27 17:45:00,86.2,42.8,29.62,South,186,4.8,10.1,22,0.00,,,0.00,WUHU216WMR968SP,2013-05-27 22:45:00,
2013-05-27 17:50:00,86.4,42.8,29.62,SSW,198,4.0,10.1,22,0.00,,,0.00,WUHU216WMR968SP,2013-05-27 22:50:00,
2013-05-27 17:55:00,85.8,42.8,29.62,South,170,3.5,10.1,22,0.00,,,0.00,WUHU216WMR968SP,2013-05-27 22:55:00,
2013-05-27 18:00:00,85.5,44.6,29.62,SE,144,3.6,10.1,23,0.00,,,0.00,WUHU216WMR968SP,2013-05-27 23:00:00,
2013-05-27 18:05:00,86.0,42.8,29.62,South,170,4.5,10.1,22,0.00,,,0.00,WUHU216WMR968SP,2013-05-27 23:05:00,
2013-05-27 18:10:00,87.1,44.6,29.62,SSW,195,5.7,8.3,23,0.00,,,0.00,WUHU216WMR968SP,2013-05-27 23:10:00,
2013-05-27 18:15:00,87.1,44.6,29.62,SSW,201,4.6,8.3,23,0.00,,,0.00,WUHU216WMR968SP,2013-05-27 23:15:00,
2013-05-27 18:20:00,86.9,44.6,29.62,SSE,160,5.2,9.6,22,0.00,,,0.00,WUHU216WMR968SP,2013-05-27 23:20:00,
2013-05-27 18:25:00,86.7,42.8,29.62,South,186,5.4,9.6,22,0.00,,,0.00,WUHU216WMR968SP,2013-05-27 23:25:00,
2013-05-27 18:30:00,87.1,44.6,29.62,SSW,192,4.4,9.6,22,0.00,,,0.00,WUHU216WMR968SP,2013-05-27 23:30:00,
2013-05-27 18:35:00,87.8,44.6,29.62,South,191,4.9,8.3,22,0.00,,,0.00,WUHU216WMR968SP,2013-05-27 23:35:00,
2013-05-27 18:40:00,87.8,42.8,29.62,SSW,200,5.5,8.3,21,0.00,,,0.00,WUHU216WMR968SP,2013-05-27 23:40:00,
2013-05-27 18:45:00,86.7,42.8,29.62,South,176,4.9,8.1,22,0.00,,,0.00,WUHU216WMR968SP,2013-05-27 23:45:00,
2013-05-27 18:50:00,85.8,44.6,29.62,SW,214,4.9,8.1,23,0.00,,,0.00,WUHU216WMR968SP,2013-05-27 23:50:00,
2013-05-27 18:55:00,85.1,46.4,29.62,South,181,3.1,6.3,25,0.00,,,0.00,WUHU216WMR968SP,2013-05-27 23:55:00,
2013-05-27 19:00:00,84.4,46.4,29.62,South,171,3.1,5.8,26,0.00,,,0.00,WUHU216WMR968SP,2013-05-28 00:00:00,
2013-05-27 19:05:00,83.3,48.2,29.62,South,191,2.8,5.4,28,0.00,,,0.00,WUHU216WMR968SP,2013-05-28 00:05:00,
2013-05-27 19:10:00,81.9,46.4,29.62,SSW,193,3.6,8.3,29,0.00,,,0.00,WUHU216WMR968SP,2013-05-28 00:10:00,
2013-05-27 19:15:00,80.6,46.4,29.62,South,189,2.9,8.3,30,0.00,,,0.00,WUHU216WMR968SP,2013-05-28 00:15:00,
2013-05-27 19:20:00,79.5,46.4,29.62,South,171,3.1,4.9,31,0.00,,,0.00,WUHU216WMR968SP,2013-05-28 00:20:00,
2013-05-27 19:25:00,78.8,46.4,29.62,South,179,2.2,4.9,32,0.00,,,0.00,WUHU216WMR968SP,2013-05-28 00:25:00,
2013-05-27 19:30:00,78.3,46.4,29.62,SE,141,0.0,4.0,33,0.00,,,0.00,WUHU216WMR968SP,2013-05-28 00:30:00,
2013-05-27 19:35:00,77.9,48.2,29.62,South,184,0.0,2.7,34,0.00,,,0.00,WUHU216WMR968SP,2013-05-28 00:35:00,
2013-05-27 19:40:00,77.7,46.4,29.62,SSE,152,0.0,2.7,34,0.00,,,0.00,WUHU216WMR968SP,2013-05-28 00:40:00,
2013-05-27 19:45:00,77.5,48.2,29.62,South,170,0.0,2.7,36,0.00,,,0.00,WUHU216WMR968SP,2013-05-28 00:45:00,
2013-05-27 19:50:00,77.2,48.2,29.62,SSE,167,0.0,2.2,37,0.00,,,0.00,WUHU216WMR968SP,2013-05-28 00:50:00,
2013-05-27 19:55:00,76.6,50.0,29.62,South,179,0.0,2.2,39,0.00,,,0.00,WUHU216WMR968SP,2013-05-28 00:55:00,
2013-05-27 20:00:00,76.5,50.0,29.62,South,179,0.0,0.0,38,0.00,,,0.00,WUHU216WMR968SP,2013-05-28 01:00:00,
2013-05-27 20:05:00,76.3,50.0,29.62,South,179,0.0,0.0,39,0.00,,,0.00,WUHU216WMR968SP,2013-05-28 01:05:00,
2013-05-27 20:10:00,75.9,48.2,29.62,SSE,153,0.0,0.0,39,0.00,,,0.00,WUHU216WMR968SP,2013-05-28 01:10:00,
2013-05-27 20:15:00,75.9,50.0,29.62,SSE,158,0.0,2.7,40,0.00,,,0.00,WUHU216WMR968SP,2013-05-28 01:15:00,
2013-05-27 20:20:00,75.7,48.2,29.62,SSE,167,0.0,4.0,39,0.00,,,0.00,WUHU216WMR968SP,2013-05-28 01:20:00,
2013-05-27 20:25:00,75.4,50.0,29.62,SSE,166,0.0,4.0,40,0.00,,,0.00,WUHU216WMR968SP,2013-05-28 01:25:00,
2013-05-27 20:30:00,75.0,50.0,29.62,SSE,147,0.0,3.1,41,0.00,,,0.00,WUHU216WMR968SP,2013-05-28 01:30:00,
2013-05-27 20:35:00,74.7,50.0,29.62,SSE,154,0.0,3.6,41,0.00,,,0.00,WUHU216WMR968SP,2013-05-28 01:35:00,
2013-05-27 20:40:00,73.9,48.2,29.62,ESE,118,0.0,3.6,41,0.00,,,0.00,WUHU216WMR968SP,2013-05-28 01:40:00,
2013-05-27 20:45:00,73.8,50.0,29.62,South,183,0.0,3.6,43,0.00,,,0.00,WUHU216WMR968SP,2013-05-28 01:45:00,
2013-05-27 20:50:00,73.8,50.0,29.62,South,184,2.5,4.0,44,0.00,,,0.00,WUHU216WMR968SP,2013-05-28 01:50:00,
2013-05-27 20:55:00,73.8,50.0,29.62,SSW,194,3.1,4.0,44,0.00,,,0.00,WUHU216WMR968SP,2013-05-28 01:55:00,
2013-05-27 21:00:00,73.6,50.0,29.62,SSE,154,2.7,5.4,44,0.00,,,0.00,WUHU216WMR968SP,2013-05-28 02:00:00,
2013-05-27 21:05:00,73.6,50.0,29.62,SSE,162,2.7,5.4,44,0.00,,,0.00,WUHU216WMR968SP,2013-05-28 02:05:00,
2013-05-27 21:10:00,73.4,50.0,29.62,SSW,193,3.1,4.5,44,0.00,,,0.00,WUHU216WMR968SP,2013-05-28 02:10:00,
2013-05-27 21:15:00,72.9,51.8,29.62,South,173,2.2,4.0,45,0.00,,,0.00,WUHU216WMR968SP,2013-05-28 02:15:00,
2013-05-27 21:20:00,72.7,51.8,29.62,SSE,162,2.2,3.6,45,0.00,,,0.00,WUHU216WMR968SP,2013-05-28 02:20:00,
2013-05-27 21:25:00,72.7,51.8,29.62,SSE,168,0.0,3.6,47,0.00,,,0.00,WUHU216WMR968SP,2013-05-28 02:25:00,
2013-05-27 21:30:00,72.7,51.8,29.62,SSE,168,0.0,3.1,47,0.00,,,0.00,WUHU216WMR968SP,2013-05-28 02:30:00,
2013-05-27 21:35:00,72.7,51.8,29.62,SSW,193,2.2,4.0,48,0.00,,,0.00,WUHU216WMR968SP,2013-05-28 02:35:00,
2013-05-27 21:40:00,72.5,51.8,29.62,SSE,168,0.0,4.0,48,0.00,,,0.00,WUHU216WMR968SP,2013-05-28 02:40:00,
2013-05-27 21:45:00,72.3,51.8,29.62,South,177,0.0,4.0,48,0.00,,,0.00,WUHU216WMR968SP,2013-05-28 02:45:00,
2013-05-27 21:50:00,72.0,51.8,29.62,South,184,2.9,4.5,48,0.00,,,0.00,WUHU216WMR968SP,2013-05-28 02:50:00,
2013-05-27 21:55:00,72.0,51.8,29.62,South,180,2.2,4.5,50,0.00,,,0.00,WUHU216WMR968SP,2013-05-28 02:55:00,
2013-05-27 22:00:00,72.1,51.8,29.62,SSE,167,3.6,5.4,49,0.00,,,0.00,WUHU216WMR968SP,2013-05-28 03:00:00,
2013-05-27 22:05:00,72.1,51.8,29.62,South,176,2.9,5.4,49,0.00,,,0.00,WUHU216WMR968SP,2013-05-28 03:05:00,
2013-05-27 22:10:00,72.3,51.8,29.62,South,184,2.8,4.0,49,0.00,,,0.00,WUHU216WMR968SP,2013-05-28 03:10:00,
2013-05-27 22:15:00,72.3,51.8,29.62,SSE,164,2.7,4.9,49,0.00,,,0.00,WUHU216WMR968SP,2013-05-28 03:15:00,
2013-05-27 22:20:00,72.0,51.8,29.62,SSE,162,3.1,4.9,49,0.00,,,0.00,WUHU216WMR968SP,2013-05-28 03:20:00,
2013-05-27 22:25:00,71.8,51.8,29.62,SSE,159,2.8,4.0,49,0.00,,,0.00,WUHU216WMR968SP,2013-05-28 03:25:00,
2013-05-27 22:30:00,71.6,51.8,29.62,SSE,156,3.5,5.8,51,0.00,,,0.00,WUHU216WMR968SP,2013-05-28 03:30:00,
2013-05-27 22:35:00,72.0,53.6,29.62,SSE,167,3.8,6.3,52,0.00,,,0.00,WUHU216WMR968SP,2013-05-28 03:35:00,
2013-05-27 22:40:00,72.1,53.6,29.62,South,176,3.2,6.3,52,0.00,,,0.00,WUHU216WMR968SP,2013-05-28 03:40:00,
2013-05-27 22:45:00,72.1,53.6,29.62,South,171,3.1,4.9,52,0.00,,,0.00,WUHU216WMR968SP,2013-05-28 03:45:00,
2013-05-27 22:50:00,72.1,53.6,29.62,SSE,166,2.3,5.4,52,0.00,,,0.00,WUHU216WMR968SP,2013-05-28 03:50:00,
2013-05-27 22:55:00,71.8,53.6,29.62,South,169,3.0,5.4,53,0.00,,,0.00,WUHU216WMR968SP,2013-05-28 03:55:00,
2013-05-27 23:00:00,71.6,53.6,29.62,South,176,2.8,5.4,54,0.00,,,0.00,WUHU216WMR968SP,2013-05-28 04:00:00,
2013-05-27 23:01:00,71.6,53.6,29.62,SSE,149,3.1,5.4,54,0.00,,,0.00,WUHU216WMR968SP,2013-05-28 04:01:00,
2013-05-27 23:06:00,71.6,55.4,29.62,South,176,2.7,5.4,56,0.00,,,0.00,WUHU216WMR968SP,2013-05-28 04:06:00,
2013-05-27 23:11:00,71.6,55.4,29.62,South,183,3.1,5.4,56,0.00,,,0.00,WUHU216WMR968SP,2013-05-28 04:11:00,
2013-05-27 23:16:00,71.4,55.4,29.62,SSE,158,2.5,5.4,56,0.00,,,0.00,WUHU216WMR968SP,2013-05-28 04:16:00,
2013-05-27 23:21:00,71.2,55.4,29.62,South,178,3.1,5.4,57,0.00,,,0.00,WUHU216WMR968SP,2013-05-28 04:21:00,
2013-05-27 23:26:00,71.2,57.2,29.62,SSE,161,3.1,5.8,59,0.00,,,0.00,WUHU216WMR968SP,2013-05-28 04:26:00,
2013-05-27 23:31:00,71.4,57.2,29.62,SSE,166,3.0,5.8,59,0.00,,,0.00,WUHU216WMR968SP,2013-05-28 04:31:00,
2013-05-27 23:36:00,71.4,57.2,29.62,South,190,3.6,5.8,60,0.00,,,0.00,WUHU216WMR968SP,2013-05-28 04:36:00,
2013-05-27 23:41:00,71.2,57.2,29.62,South,172,3.5,5.8,60,0.00,,,0.00,WUHU216WMR968SP,2013-05-28 04:41:00,
2013-05-27 23:46:00,71.1,57.2,29.62,South,178,3.1,5.4,60,0.00,,,0.00,WUHU216WMR968SP,2013-05-28 04:46:00,
2013-05-27 23:51:00,71.1,57.2,29.62,South,186,3.1,5.8,62,0.00,,,0.00,WUHU216WMR968SP,2013-05-28 04:51:00,
2013-05-27 23:56:00,71.1,59.0,29.62,South,185,3.1,5.8,63,0.00,,,0.00,WUHU216WMR968SP,2013-05-28 04:56:00,